TimeEDT,TemperatureF,Dew PointF,Humidity,Sea Level PressureIn,VisibilityMPH,Wind Direction,Wind SpeedMPH,Gust SpeedMPH,PrecipitationIn,Events,Conditions,WindDirDegrees,DateUTC
12:53 AM,43.0,39.9,89,30.01,10.0,West,6.9,-,N/A,,Overcast,270,2012-10-06 04:53:00
1:53 AM,41.0,39.0,93,30.00,10.0,West,6.9,-,N/A,,Clear,260,2012-10-06 05:53:00
2:53 AM,39.9,37.9,93,30.01,9.0,West,4.6,-,N/A,,Clear,260,2012-10-06 06:53:00
3:53 AM,37.9,37.0,97,30.00,8.0,West,3.5,-,N/A,,Clear,260,2012-10-06 07:53:00
4:53 AM,37.0,36.0,96,30.00,8.0,WSW,4.6,-,N/A,,Clear,250,2012-10-06 08:53:00
5:53 AM,37.0,35.1,93,30.00,10.0,West,5.8,-,N/A,,Clear,260,2012-10-06 09:53:00
7:53 AM,37.9,35.1,89,30.04,10.0,West,8.1,-,N/A,,Overcast,260,2012-10-06 11:53:00
8:53 AM,39.9,36.0,86,30.06,10.0,West,6.9,-,N/A,,Overcast,280,2012-10-06 12:53:00
10:53 AM,46.0,37.9,73,30.07,10.0,West,9.2,-,N/A,,Scattered Clouds,280,2012-10-06 14:53:00
11:53 AM,48.0,33.1,56,30.08,10.0,NW,13.8,23.0,N/A,,Overcast,310,2012-10-06 15:53:00
12:53 PM,48.0,33.1,56,30.09,10.0,WNW,19.6,25.3,N/A,,Overcast,290,2012-10-06 16:53:00
1:53 PM,48.9,33.1,54,30.08,10.0,WNW,10.4,19.6,N/A,,Overcast,290,2012-10-06 17:53:00
2:53 PM,46.9,32.0,56,30.09,10.0,NW,12.7,20.7,N/A,,Overcast,320,2012-10-06 18:53:00
3:53 PM,48.0,32.0,54,30.09,10.0,WNW,9.2,21.9,N/A,,Overcast,300,2012-10-06 19:53:00
4:53 PM,46.9,33.1,59,30.09,10.0,West,9.2,-,N/A,,Overcast,280,2012-10-06 20:53:00
5:53 PM,46.9,34.0,61,30.11,10.0,West,8.1,-,N/A,,Overcast,280,2012-10-06 21:53:00
7:53 PM,43.0,37.0,80,30.14,9.0,WNW,4.6,-,0.00,Rain,Light Rain,300,2012-10-06 23:53:00
8:53 PM,42.1,37.9,85,30.15,10.0,West,4.6,-,0.00,,Overcast,280,2012-10-07 00:53:00
9:53 PM,42.1,37.9,85,30.16,10.0,West,6.9,-,N/A,,Overcast,270,2012-10-07 01:53:00
10:53 PM,42.1,37.0,82,30.16,10.0,WNW,4.6,-,N/A,,Overcast,300,2012-10-07 02:53:00
11:53 PM,42.1,37.9,85,30.15,10.0,West,4.6,-,N/A,,Overcast,280,2012-10-07 03:53:00